Location: Hains Lake
(37.8540°N, 99.8578°W)
Time: 11:17:52
(UTC+00:00)

Tiros 1 despin weight - Pass Details

Date: 25 April 2021
Orbit: 593 x 642 km, 48.2° (Epoch: 07 May)

Event Time Altitude Azimuth Distance (km) Brightness Sun altitude
Rises 08:07:55 0° 200° (SSW) 2,925 - -34.6°
Reaches altitude 10° 08:10:38 10° 185° (S) 2,017 - -34.4°
Maximum altitude 08:14:16 23° 134° (SE) 1,355 - -34.0°
Exits shadow 08:17:29 12° 85° (E) 1,890 ? -33.7°
Drops below altitude 10° 08:17:53 10° 82° (E) 2,010 ? -33.7°
Sets 08:20:35 0° 68° (ENE) 2,913 ? -33.4°
